When you browse on this site, cookies collect data to enhance your experience and personalize the content and advertising you see.
Visit our Privacy Policy to learn more. By continuing to use the site, you agree to this use of cookies and data.
  • în România
  • Lista ţărilor
  • Pe 7 zile
  • Temperatura apei
  • Hartă satelitară
  • Meteo pe hartă
  • Widget-uri
  • user-avatar
    Intrare

    Meteo pe oră la Igls

    Astăzi, 22 Mai, Miercuri

    Timp Temperatura Precipitaţii Vânt Presiune Umiditate
    00:00 +8°C° 0.2 mm 1 m/s 682 mmHg 96%
    01:00 +8°C° 0 mm 1 m/s 682 mmHg 95%
    02:00 +8°C° 0.2 mm 1 m/s 682 mmHg 95%
    03:00 +8°C° 0.2 mm 1 m/s 682 mmHg 95%
    04:00 +8°C° 0.2 mm 1 m/s 682 mmHg 95%
    05:00 +8°C° 0.2 mm 1 m/s 683 mmHg 94%
    06:00 +9°C° 0.2 mm 1 m/s 683 mmHg 94%
    07:00 +10°C° 0 mm 1 m/s 683 mmHg 92%
    08:00 +11°C° 0.2 mm 1 m/s 683 mmHg 89%
    09:00 +12°C° 0.2 mm 1 m/s 684 mmHg 86%
    10:00 +13°C° 0.2 mm 2 m/s 684 mmHg 83%
    11:00 +14°C° 0.2 mm 2 m/s 684 mmHg 80%
    12:00 +15°C° 0.2 mm 2 m/s 684 mmHg 77%
    13:00 +15°C° 0.2 mm 2 m/s 684 mmHg 74%
    14:00 +15°C° 0.3 mm 2 m/s 684 mmHg 76%
    15:00 +15°C° 0.3 mm 2 m/s 684 mmHg 78%
    16:00 +15°C° 0.3 mm 2 m/s 684 mmHg 79%
    17:00 +14°C° 0.2 mm 2 m/s 684 mmHg 84%
    18:00 +13°C° 0.2 mm 2 m/s 684 mmHg 89%
    19:00 +12°C° 0.2 mm 1 m/s 684 mmHg 93%
    20:00 +11°C° 0.1 mm 1 m/s 684 mmHg 95%
    21:00 +10°C° 0.1 mm 1 m/s 685 mmHg 96%
    22:00 +10°C° 0.1 mm 1 m/s 685 mmHg 97%
    23:00 +9°C° 0 mm 1 m/s 685 mmHg 97%

    Mâine, 23 Mai, Joi

    Timp Temperatura Precipitaţii Vânt Presiune Umiditate
    00:00 +9°C° 0 mm 1 m/s 685 mmHg 96%
    01:00 +8°C° 0 mm 1 m/s 685 mmHg 96%
    02:00 +8°C° 0 mm 1 m/s 685 mmHg 95%
    03:00 +8°C° 0 mm 1 m/s 685 mmHg 95%
    04:00 +7°C° 0 mm 1 m/s 685 mmHg 95%
    05:00 +9°C° 0 mm 1 m/s 685 mmHg 92%
    06:00 +10°C° 0 mm 1 m/s 686 mmHg 89%
    07:00 +11°C° 0 mm 1 m/s 686 mmHg 85%
    08:00 +13°C° 0 mm 1 m/s 686 mmHg 79%
    09:00 +14°C° 0 mm 1 m/s 686 mmHg 72%
    10:00 +15°C° 0 mm 1 m/s 686 mmHg 66%
    11:00 +18°C° 0 mm 1 m/s 686 mmHg 60%
    12:00 +18°C° 0 mm 2 m/s 686 mmHg 54%
    13:00 +19°C° 0 mm 2 m/s 686 mmHg 49%
    14:00 +19°C° 0 mm 2 m/s 686 mmHg 48%
    15:00 +19°C° 0 mm 2 m/s 685 mmHg 48%
    16:00 +18°C° 0 mm 2 m/s 685 mmHg 48%
    17:00 +17°C° 0 mm 2 m/s 685 mmHg 56%
    18:00 +15°C° 0 mm 2 m/s 684 mmHg 65%
    19:00 +14°C° 0 mm 1 m/s 684 mmHg 74%
    20:00 +12°C° 0 mm 1 m/s 684 mmHg 80%
    21:00 +10°C° 0 mm 1 m/s 684 mmHg 86%
    22:00 +8°C° 0 mm 1 m/s 684 mmHg 92%
    23:00 +8°C° 0 mm 1 m/s 684 mmHg 91%

    Poimâine, 24 Mai, Vineri

    Timp Temperatura Precipitaţii Vânt Presiune Umiditate
    00:00 +8°C° 0 mm 1 m/s 684 mmHg 90%
    01:00 +8°C° 0 mm 1 m/s 684 mmHg 90%
    02:00 +8°C° 0 mm 1 m/s 684 mmHg 88%
    03:00 +8°C° 0 mm 1 m/s 684 mmHg 86%
    04:00 +8°C° 0 mm 1 m/s 683 mmHg 84%
    05:00 +10°C° 0 mm 1 m/s 684 mmHg 76%
    06:00 +11°C° 0 mm 0 m/s 684 mmHg 68%
    07:00 +13°C° 0 mm 0 m/s 684 mmHg 60%
    08:00 +16°C° 0 mm 1 m/s 684 mmHg 55%
    09:00 +18°C° 0 mm 1 m/s 684 mmHg 49%
    10:00 +20°C° 0 mm 1 m/s 684 mmHg 43%
    11:00 +21°C° 0 mm 1 m/s 684 mmHg 43%
    12:00 +20°C° 0 mm 2 m/s 684 mmHg 42%
    13:00 +21°C° 0 mm 2 m/s 684 mmHg 42%
    14:00 +21°C° 0 mm 2 m/s 683 mmHg 45%
    15:00 +20°C° 0 mm 2 m/s 683 mmHg 48%
    16:00 +20°C° 0 mm 2 m/s 682 mmHg 51%
    17:00 +18°C° 0.1 mm 2 m/s 682 mmHg 60%
    18:00 +17°C° 0.1 mm 2 m/s 682 mmHg 69%
    19:00 +15°C° 0.1 mm 1 m/s 682 mmHg 78%
    20:00 +14°C° 0.1 mm 1 m/s 682 mmHg 84%
    21:00 +12°C° 0.1 mm 1 m/s 682 mmHg 89%
    22:00 +10°C° 0.1 mm 0 m/s 682 mmHg 94%
    23:00 +10°C° 0 mm 0 m/s 682 mmHg 94%

    25 Mai, Sâmbătă

    Timp Temperatura Precipitaţii Vânt Presiune Umiditate
    00:00 +10°C° 0 mm 1 m/s 682 mmHg 94%
    01:00 +10°C° 0 mm 1 m/s 682 mmHg 93%
    02:00 +10°C° 0 mm 1 m/s 682 mmHg 92%
    03:00 +10°C° 0 mm 1 m/s 682 mmHg 91%
    04:00 +10°C° 0 mm 1 m/s 682 mmHg 90%
    05:00 +12°C° 0 mm 1 m/s 682 mmHg 84%
    06:00 +14°C° 0 mm 1 m/s 682 mmHg 78%
    07:00 +15°C° 0 mm 0 m/s 683 mmHg 72%
    08:00 +18°C° 0.1 mm 1 m/s 683 mmHg 68%
    09:00 +19°C° 0.1 mm 1 m/s 683 mmHg 64%
    10:00 +21°C° 0.1 mm 1 m/s 683 mmHg 60%
    11:00 +20°C° 0.7 mm 1 m/s 683 mmHg 65%
    12:00 +20°C° 0.7 mm 1 m/s 683 mmHg 70%
    13:00 +19°C° 0.7 mm 1 m/s 683 mmHg 76%
    14:00 +19°C° 1.1 mm 1 m/s 683 mmHg 78%
    15:00 +18°C° 1.1 mm 1 m/s 682 mmHg 81%
    16:00 +18°C° 1.1 mm 1 m/s 682 mmHg 83%
    17:00 +16°C° 1.8 mm 1 m/s 682 mmHg 87%
    18:00 +15°C° 1.8 mm 1 m/s 682 mmHg 91%
    19:00 +14°C° 1.8 mm 1 m/s 682 mmHg 95%
    20:00 +13°C° 2.8 mm 1 m/s 683 mmHg 96%
    21:00 +13°C° 2.8 mm 1 m/s 683 mmHg 97%
    22:00 +12°C° 2.8 mm 1 m/s 683 mmHg 97%
    23:00 +12°C° 0.8 mm 1 m/s 683 mmHg 97%

    26 Mai, Duminică

    Timp Temperatura Precipitaţii Vânt Presiune Umiditate
    00:00 +12°C° 0.8 mm 1 m/s 683 mmHg 96%
    01:00 +11°C° 0.8 mm 0 m/s 683 mmHg 95%
    02:00 +10°C° 0.1 mm 0 m/s 683 mmHg 95%
    03:00 +11°C° 0.1 mm 1 m/s 683 mmHg 94%
    04:00 +11°C° 0.1 mm 1 m/s 682 mmHg 94%
    05:00 +12°C° 0 mm 1 m/s 683 mmHg 91%
    06:00 +13°C° 0 mm 1 m/s 683 mmHg 88%
    07:00 +14°C° 0 mm 1 m/s 683 mmHg 85%
    08:00 +16°C° 0 mm 1 m/s 684 mmHg 79%
    09:00 +18°C° 0 mm 1 m/s 684 mmHg 73%
    10:00 +19°C° 0 mm 1 m/s 684 mmHg 66%
    11:00 +19°C° 0.2 mm 2 m/s 684 mmHg 65%
    12:00 +19°C° 0.2 mm 2 m/s 684 mmHg 63%
    13:00 +20°C° 0.2 mm 2 m/s 684 mmHg 61%
    14:00 +19°C° 0.5 mm 2 m/s 684 mmHg 66%
    15:00 +19°C° 0.5 mm 2 m/s 683 mmHg 71%
    16:00 +18°C° 0.5 mm 2 m/s 683 mmHg 76%
    17:00 +17°C° 0.4 mm 2 m/s 683 mmHg 81%
    18:00 +16°C° 0.4 mm 2 m/s 683 mmHg 86%
    19:00 +15°C° 0.4 mm 2 m/s 683 mmHg 91%
    20:00 +14°C° 0.1 mm 1 m/s 683 mmHg 93%
    21:00 +14°C° 0.1 mm 1 m/s 683 mmHg 95%
    22:00 +13°C° 0.1 mm 1 m/s 683 mmHg 96%
    23:00 +11°C° 0 mm 0 m/s 683 mmHg 96%

    27 Mai, Luni

    Timp Temperatura Precipitaţii Vânt Presiune Umiditate
    00:00 +10°C° 0 mm 0 m/s 683 mmHg 97%
    01:00 +10°C° 0 mm 0 m/s 682 mmHg 97%
    02:00 +10°C° 0 mm 0 m/s 682 mmHg 96%
    03:00 +10°C° 0 mm 0 m/s 682 mmHg 96%
    04:00 +10°C° 0 mm 0 m/s 681 mmHg 95%
    05:00 +11°C° 0 mm 0 m/s 681 mmHg 90%
    06:00 +12°C° 0 mm 0 m/s 681 mmHg 86%
    07:00 +14°C° 0 mm 0 m/s 681 mmHg 81%
    08:00 +15°C° 0.1 mm 0 m/s 681 mmHg 76%
    09:00 +18°C° 0.1 mm 1 m/s 682 mmHg 71%
    10:00 +19°C° 0.1 mm 1 m/s 682 mmHg 66%
    11:00 +19°C° 0.8 mm 1 m/s 681 mmHg 72%
    12:00 +18°C° 0.8 mm 1 m/s 681 mmHg 78%
    13:00 +16°C° 0.8 mm 2 m/s 680 mmHg 84%
    14:00 +16°C° 1.4 mm 1 m/s 680 mmHg 87%
    15:00 +15°C° 1.4 mm 1 m/s 679 mmHg 89%
    16:00 +15°C° 1.4 mm 1 m/s 679 mmHg 92%
    17:00 +15°C° 0.7 mm 1 m/s 679 mmHg 93%
    18:00 +14°C° 0.7 mm 1 m/s 678 mmHg 93%
    19:00 +14°C° 0.7 mm 1 m/s 678 mmHg 94%
    20:00 +13°C° 0.1 mm 1 m/s 678 mmHg 94%
    21:00 +12°C° 0.1 mm 1 m/s 678 mmHg 95%
    22:00 +11°C° 0.1 mm 1 m/s 678 mmHg 95%
    23:00 +11°C° 0.1 mm 1 m/s 678 mmHg 94%
    Arată mai mult